CW7664 Weather Reports


Display with metric or nautical units.
time (UTC)temp
F
wind
direction
speed
MPH
gust
MPH
rain 1hr
in
rain 24hr
in
rain mn
in
humidity
%
barometer
mb
20260504034556 62 215 2.0 7.0 0.00 0.00 0.00 64 1012.5
20260504033105 62 234 1.0 4.0 0.00 0.00 0.00 66 1012.4
20260504031542 62 193 2.0 6.0 0.00 0.00 0.00 66 1012.2
20260504030046 63 176 4.0 7.0 0.00 0.00 0.00 66 1011.9
20260504024544 63 219 2.0 6.0 0.00 0.00 0.00 67 1012.0
20260504023057 64 207 2.0 4.0 0.00 0.00 0.00 66 1012.0
20260504021539 64 211 1.0 7.0 0.00 0.00 0.00 64 1011.8
20260504020039 64 237 1.0 6.0 0.00 0.00 0.00 65 1011.9
20260504014546 64 248 4.0 8.0 0.00 0.00 0.00 66 1012.0
20260504013045 64 219 2.0 7.0 0.00 0.00 0.00 66 1011.6
20260504011538 64 221 3.0 10.0 0.00 0.00 0.00 64 1011.9
20260504010046 65 204 5.0 11.0 0.00 0.00 0.00 62 1011.7
20260504004546 66 296 4.0 10.0 0.00 0.00 0.00 59 1011.5
20260504003037 68 257 5.0 9.0 0.00 0.00 0.00 55 1011.4
20260504001536 69 254 3.0 10.0 0.00 0.00 0.00 53 1011.4
20260504000036 69 235 2.0 8.0 0.00 0.00 0.00 53 1011.2
20260503234541 69 269 4.0 10.0 0.00 0.00 0.00 53 1011.1
20260503233034 70 239 3.0 7.0 0.00 0.00 0.00 51 1010.9
20260503231534 69 180 3.0 7.0 0.00 0.00 0.00 54 1011.2
20260503230028 68 188 3.0 9.0 0.00 0.00 0.00 54 1011.5
20260503224527 68 207 3.0 9.0 0.00 0.00 0.00 55 1011.5
20260503223026 68 225 4.0 7.0 0.00 0.00 0.00 55 1011.8
20260503221526 67 211 2.0 6.0 0.00 0.00 0.00 56 1012.0
20260503220025 67 209 3.0 7.0 0.00 0.00 0.00 56 1012.1
20260503214527 67 186 4.0 7.0 0.00 0.00 0.00 56 1012.2
20260503213022 67 207 4.0 7.0 0.00 0.00 0.00 55 1012.3
20260503211523 67 277 1.0 4.0 0.00 0.00 0.00 56 1012.3
20260503210025 67 274 2.0 6.0 0.00 0.00 0.00 58 1012.4
20260503204516 66 205 3.0 8.0 0.00 0.00 0.00 59 1012.4
20260503203022 67 77 2.0 7.0 0.00 0.00 0.00 59 1012.6
20260503201514 66 315 2.0 5.0 0.00 0.00 0.00 62 1012.6
20260503200012 65 286 1.0 7.0 0.00 0.00 0.00 64 1012.7
20260503194513 65 13 2.0 9.0 0.00 0.00 0.00 64 1012.9
20260503193011 65 316 2.0 8.0 0.00 0.00 0.00 63 1012.9
20260503191509 65 160 3.0 7.0 0.00 0.00 0.00 64 1012.8
20260503190008 65 211 2.0 7.0 0.00 0.00 0.00 65 1012.9
20260503184515 66 179 2.0 4.0 0.00 0.00 0.00 62 1013.0
20260503183007 66 267 1.0 3.0 0.00 0.00 0.00 63 1012.9
20260503181506 66 99 0.0 2.0 0.00 0.00 0.00 64 1013.0
20260503180007 65 68 0.0 2.0 0.00 0.00 0.00 65 1013.1
20260503174605 65 26 0.0 2.0 0.00 0.00 0.00 66 1013.1
20260503173119 64 107 1.0 4.0 0.00 0.00 0.00 66 1013.1
20260503171556 63 306 0.0 2.0 0.00 0.00 0.00 67 1013.1
20260503081503 61 300 1.0 3.0 0.00 0.00 0.00 78 1011.9
20260503071611 61 268 0.0 4.0 0.00 0.00 0.00 79 1011.6
20260503070107 60 229 0.0 5.0 0.00 0.00 0.00 79 1011.4
20260503054552 61 219 1.0 4.0 0.00 0.00 0.00 80 1011.4
20260503053052 61 187 1.0 5.0 0.00 0.00 0.00 80 1011.3
20260503051554 61 227 3.0 7.0 0.00 0.00 0.00 80 1011.3
20260503050052 61 230 1.0 5.0 0.00 0.00 0.00 80 1011.1
20260503044550 61 265 2.0 6.0 0.00 0.00 0.00 79 1010.9
20260503043050 61 291 0.0 4.0 0.00 0.00 0.00 79 1010.6
20260503041604 61 253 2.0 6.0 0.00 0.00 0.00 79 1010.4
20260503040057 61 262 1.0 4.0 0.00 0.00 0.00 79 1010.2